Location: Camp at the Woods
(43.2055°N, 93.0905°W)
Time: 06:21:25
(UTC+00:00)

Cosmos 1933 - Pass Details

Date: 05 December 2023
Orbit: 538 x 541 km, 82.5° (Epoch: 29 February)

Event Time Altitude Azimuth Distance (km) Brightness Sun altitude
Exits shadow 10:40:17 21° 50° (NE) 1,256 5.5 -29.9°
Drops below altitude 10° 10:44:32 10° 128° (SE) 1,795 6.6 -29.1°
Enters shadow 11:55:07 -40° 353° (N) 8,961 9.4 -16.5°
Maximum altitude 12:17:31 25° 271° (W) 1,111 4.3 -12.6°
